Back to catalog

NOAA 16 DEB

AlivePO
NORAD 41710·DEBRIS·🇺🇸 United States

Launched Sep 21, 2000 from Vandenberg Space Force Base

Loading…

Next Passes (next 24 hours)

TLE

FreshSource: Space-Track

Epoch: Sep 14, 2026, 00:00 UTC

1 41710U 00055PQ  26257.00010189  .00004949  00000-0  11332-2 0  9992
2 41710  98.9393  99.3405 0024960 179.9854 180.1347 14.55933005542088

Track NOAA 16 DEB in real time with AllMySat

Download on the App Store